User: anonymous   Login
Location: Treviso
(45.6669°N, 12.2430°E)
Time: 11:11:41
(UTC+01:00)
Language:

NUDT-PHONESAT - Orbit

View from above orbital plane
View from above orbital plane
View from above satellite
View from above satellite

Ground track
Ground track

The orbit data is extracted from the following two-line orbital elements,

1 40900U 15049B   19319.17653851  .00002134  00000-0  92861-4 0  9991
2 40900  97.4368 327.0810 0013469  27.8108  36.4354 15.23271440230416
Epoch (UTC): 15 November 2019 04:14:12
Eccentricity: 0.0013469
inclination: 97.4368°
perigee height: 487 km
apogee height: 505 km
right ascension of ascending node: 327.0810°
argument of perigee: 27.8108°
revolutions per day: 15.23271440
mean anomaly at epoch: 36.4354°
orbit number at epoch: 23041

The dashed part of the orbit path shows where the satellite is in the earth's shadow,  

DLR